Location: Borojevi?i
(45.0486°N, 16.2297°E)
Time: 10:36:35
(UTC+00:00)

SPOT 5 - Pass Details

Date: 08 August 2020
Orbit: 624 x 814 km, 98.3° (Epoch: 21 September)

Event Time Altitude Azimuth Distance (km) Brightness Sun altitude
Exits shadow 20:35:52 55° 161° (SSE) 753 2.6 -20.8°
Maximum altitude 20:36:48 87° 79° (E) 632 2.5 -20.9°
Drops below altitude 10° 20:41:10 10° 347° (NNW) 2,016 6.1 -21.4°
Sets 20:43:23 0° 347° (NNW) 2,940 7.2 -21.6°
